When you browse on this site, cookies collect data to enhance your experience and personalize the content and advertising you see.
Visit our Privacy Policy to learn more. By continuing to use the site, you agree to this use of cookies and data.
  • In Switzerland
  • List of Countries
  • For 7 days
  • Water Temperature
  • Satellite Maps
  • Weather Map
  • Weather Widgets
  • user-avatar
    Login

    Hourly Weather Pinneberg

    Today, 26 May, Sunday

    Time Temperature Precipitation Wind Pressure Humidity
    00:00 +7°C° 0 mm 2 mps 759 mmHg 96%
    01:00 +7°C° 0 mm 2 mps 759 mmHg 96%
    02:00 +7°C° 0 mm 2 mps 759 mmHg 95%
    03:00 +7°C° 0 mm 3 mps 758 mmHg 94%
    04:00 +7°C° 0 mm 3 mps 758 mmHg 93%
    05:00 +9°C° 0 mm 3 mps 757 mmHg 90%
    06:00 +10°C° 0 mm 4 mps 757 mmHg 87%
    07:00 +12°C° 0 mm 5 mps 756 mmHg 84%
    08:00 +12°C° 0 mm 5 mps 756 mmHg 82%
    09:00 +13°C° 0 mm 5 mps 756 mmHg 79%
    10:00 +14°C° 0 mm 6 mps 755 mmHg 77%
    11:00 +14°C° 0.2 mm 5 mps 755 mmHg 81%
    12:00 +14°C° 0.2 mm 5 mps 754 mmHg 85%
    13:00 +14°C° 0.2 mm 5 mps 754 mmHg 89%
    14:00 +15°C° 0.2 mm 5 mps 754 mmHg 87%
    15:00 +17°C° 0.2 mm 6 mps 754 mmHg 84%
    16:00 +19°C° 0.2 mm 6 mps 753 mmHg 82%
    17:00 +17°C° 0.7 mm 6 mps 753 mmHg 85%
    18:00 +17°C° 0.7 mm 5 mps 753 mmHg 89%
    19:00 +16°C° 0.7 mm 5 mps 752 mmHg 92%
    20:00 +15°C° 1.4 mm 5 mps 752 mmHg 93%
    21:00 +15°C° 1.4 mm 5 mps 752 mmHg 95%
    22:00 +14°C° 1.4 mm 5 mps 752 mmHg 96%
    23:00 +14°C° 1.1 mm 5 mps 752 mmHg 96%

    Tomorrow, 27 May, Monday

    Time Temperature Precipitation Wind Pressure Humidity
    00:00 +14°C° 1.1 mm 4 mps 752 mmHg 97%
    01:00 +13°C° 1.1 mm 4 mps 752 mmHg 97%
    02:00 +13°C° 0.2 mm 4 mps 751 mmHg 96%
    03:00 +12°C° 0.2 mm 4 mps 751 mmHg 96%
    04:00 +12°C° 0.2 mm 4 mps 751 mmHg 95%
    05:00 +12°C° 0 mm 5 mps 752 mmHg 93%
    06:00 +12°C° 0 mm 5 mps 752 mmHg 92%
    07:00 +12°C° 0 mm 5 mps 753 mmHg 90%
    08:00 +13°C° 0.1 mm 5 mps 753 mmHg 85%
    09:00 +13°C° 0.1 mm 5 mps 753 mmHg 80%
    10:00 +14°C° 0.1 mm 5 mps 753 mmHg 75%
    11:00 +14°C° 0.1 mm 6 mps 753 mmHg 71%
    12:00 +15°C° 0.1 mm 6 mps 753 mmHg 67%
    13:00 +15°C° 0.1 mm 6 mps 754 mmHg 63%
    14:00 +15°C° 0.1 mm 6 mps 753 mmHg 63%
    15:00 +15°C° 0.1 mm 6 mps 753 mmHg 64%
    16:00 +15°C° 0.1 mm 6 mps 753 mmHg 65%
    17:00 +14°C° 0 mm 5 mps 754 mmHg 68%
    18:00 +14°C° 0 mm 5 mps 754 mmHg 70%
    19:00 +13°C° 0 mm 4 mps 754 mmHg 73%
    20:00 +12°C° 0 mm 4 mps 754 mmHg 77%
    21:00 +10°C° 0 mm 3 mps 754 mmHg 81%
    22:00 +9°C° 0 mm 3 mps 754 mmHg 86%
    23:00 +8°C° 0 mm 2 mps 754 mmHg 89%

    Day after tomorrow, 28 May, Tuesday

    Time Temperature Precipitation Wind Pressure Humidity
    00:00 +7°C° 0 mm 2 mps 754 mmHg 92%
    01:00 +6°C° 0 mm 2 mps 754 mmHg 96%
    02:00 +7°C° 0 mm 1 mps 754 mmHg 96%
    03:00 +7°C° 0 mm 1 mps 754 mmHg 95%
    04:00 +5°C° 0 mm 0 mps 754 mmHg 95%
    05:00 +6°C° 0 mm 0 mps 754 mmHg 92%
    06:00 +9°C° 0 mm 1 mps 754 mmHg 89%
    07:00 +10°C° 0 mm 1 mps 754 mmHg 86%
    08:00 +11°C° 0.1 mm 1 mps 754 mmHg 82%
    09:00 +11°C° 0.1 mm 0 mps 754 mmHg 77%
    10:00 +13°C° 0.1 mm 0 mps 754 mmHg 73%
    11:00 +13°C° 0.4 mm 0 mps 754 mmHg 76%
    12:00 +14°C° 0.4 mm 1 mps 754 mmHg 78%
    13:00 +14°C° 0.4 mm 1 mps 753 mmHg 81%
    14:00 +14°C° 0.5 mm 2 mps 753 mmHg 83%
    15:00 +14°C° 0.5 mm 2 mps 753 mmHg 85%
    16:00 +13°C° 0.5 mm 3 mps 753 mmHg 87%
    17:00 +12°C° 0.3 mm 3 mps 753 mmHg 90%
    18:00 +11°C° 0.3 mm 3 mps 754 mmHg 92%
    19:00 +11°C° 0.3 mm 3 mps 754 mmHg 94%
    20:00 +10°C° 0.3 mm 3 mps 755 mmHg 94%
    21:00 +9°C° 0.3 mm 3 mps 755 mmHg 95%
    22:00 +9°C° 0.3 mm 2 mps 755 mmHg 95%
    23:00 +8°C° 0 mm 2 mps 756 mmHg 95%

    29 May, Wednesday

    Time Temperature Precipitation Wind Pressure Humidity
    00:00 +8°C° 0 mm 3 mps 756 mmHg 95%
    01:00 +7°C° 0 mm 3 mps 756 mmHg 96%
    02:00 +7°C° 0 mm 3 mps 757 mmHg 94%
    03:00 +5°C° 0 mm 3 mps 757 mmHg 92%
    04:00 +4°C° 0 mm 3 mps 758 mmHg 91%
    05:00 +5°C° 0 mm 3 mps 758 mmHg 87%
    06:00 +7°C° 0 mm 3 mps 759 mmHg 83%
    07:00 +8°C° 0 mm 3 mps 759 mmHg 80%
    08:00 +9°C° 0 mm 3 mps 760 mmHg 72%
    09:00 +10°C° 0 mm 3 mps 760 mmHg 65%
    10:00 +12°C° 0 mm 3 mps 761 mmHg 57%
    11:00 +12°C° 0 mm 3 mps 761 mmHg 56%
    12:00 +12°C° 0 mm 3 mps 762 mmHg 55%
    13:00 +13°C° 0 mm 3 mps 762 mmHg 54%
    14:00 +13°C° 0 mm 3 mps 762 mmHg 55%
    15:00 +13°C° 0 mm 3 mps 762 mmHg 56%
    16:00 +12°C° 0 mm 3 mps 762 mmHg 57%
    17:00 +12°C° 0 mm 3 mps 762 mmHg 60%
    18:00 +11°C° 0 mm 3 mps 763 mmHg 64%
    19:00 +12°C° 0 mm 2 mps 763 mmHg 67%
    20:00 +9°C° 0 mm 2 mps 763 mmHg 73%
    21:00 +8°C° 0 mm 1 mps 763 mmHg 79%
    22:00 +6°C° 0 mm 1 mps 764 mmHg 85%
    23:00 +6°C° 0 mm 1 mps 764 mmHg 86%

    30 May, Thursday

    Time Temperature Precipitation Wind Pressure Humidity
    00:00 +5°C° 0 mm 1 mps 764 mmHg 87%
    01:00 +5°C° 0 mm 1 mps 764 mmHg 87%
    02:00 +5°C° 0 mm 1 mps 764 mmHg 88%
    03:00 +4°C° 0 mm 1 mps 764 mmHg 89%
    04:00 +4°C° 0 mm 1 mps 764 mmHg 89%
    05:00 +5°C° 0 mm 2 mps 764 mmHg 85%
    06:00 +7°C° 0 mm 2 mps 764 mmHg 80%
    07:00 +9°C° 0 mm 2 mps 764 mmHg 75%
    08:00 +10°C° 0 mm 3 mps 764 mmHg 71%
    09:00 +12°C° 0 mm 4 mps 764 mmHg 68%
    10:00 +13°C° 0 mm 4 mps 764 mmHg 64%
    11:00 +13°C° 0.1 mm 4 mps 764 mmHg 66%
    12:00 +13°C° 0.1 mm 3 mps 764 mmHg 69%
    13:00 +13°C° 0.1 mm 3 mps 763 mmHg 72%
    14:00 +13°C° 0.5 mm 3 mps 763 mmHg 77%
    15:00 +13°C° 0.5 mm 3 mps 763 mmHg 83%
    16:00 +13°C° 0.5 mm 3 mps 763 mmHg 88%
    17:00 +12°C° 0.6 mm 3 mps 763 mmHg 90%
    18:00 +11°C° 0.6 mm 3 mps 763 mmHg 92%
    19:00 +10°C° 0.6 mm 3 mps 763 mmHg 93%
    20:00 +9°C° 0.1 mm 3 mps 764 mmHg 94%
    21:00 +9°C° 0.1 mm 3 mps 764 mmHg 95%
    22:00 +8°C° 0.1 mm 3 mps 764 mmHg 96%
    23:00 +8°C° 0.2 mm 3 mps 764 mmHg 96%

    31 May, Friday

    Time Temperature Precipitation Wind Pressure Humidity
    00:00 +8°C° 0.2 mm 2 mps 764 mmHg 97%
    01:00 +8°C° 0.2 mm 2 mps 764 mmHg 97%
    02:00 +8°C° 0.2 mm 2 mps 764 mmHg 97%
    03:00 +8°C° 0.2 mm 2 mps 764 mmHg 97%
    04:00 +8°C° 0.2 mm 1 mps 765 mmHg 97%
    05:00 +8°C° 0 mm 2 mps 765 mmHg 94%
    06:00 +8°C° 0 mm 2 mps 766 mmHg 90%
    07:00 +9°C° 0 mm 2 mps 766 mmHg 86%
    08:00 +10°C° 0 mm 2 mps 767 mmHg 75%
    09:00 +13°C° 0 mm 2 mps 767 mmHg 64%
    10:00 +14°C° 0 mm 1 mps 767 mmHg 53%
    11:00 +16°C° 0 mm 1 mps 768 mmHg 49%
    12:00 +18°C° 0 mm 1 mps 768 mmHg 45%
    13:00 +19°C° 0 mm 1 mps 768 mmHg 42%
    14:00 +19°C° 0 mm 1 mps 768 mmHg 43%
    15:00 +19°C° 0 mm 1 mps 768 mmHg 44%
    16:00 +18°C° 0 mm 1 mps 768 mmHg 46%
    17:00 +16°C° 0 mm 2 mps 768 mmHg 54%
    18:00 +15°C° 0 mm 2 mps 767 mmHg 62%
    19:00 +14°C° 0 mm 2 mps 767 mmHg 70%
    20:00 +13°C° 0.1 mm 2 mps 767 mmHg 75%
    21:00 +12°C° 0.1 mm 2 mps 767 mmHg 80%
    22:00 +10°C° 0.1 mm 2 mps 768 mmHg 85%
    23:00 +10°C° 0 mm 2 mps 767 mmHg 87%
    Show more